GAOFEN-5 01

Last updated on Sun Dec 14 2025 00:02:32 GMT+0000 (Coordinated Universal Time)

1 43461U 18043A 25346.92251539 .00000764 00000+0 16796-3 0 9998 2 43461 98.4326 309.8929 0000944 339.5277 20.5885 14.60410348404507
UTC large
Height (km)
Speed (km/s)
/
Latitude / Longitude
Inclination (degrees)
Orbital Period (minutes)
Azimuth
Elevation
Range (km)
Doppler Factor

Next 0 passes for location: London (51.5072 / 0.1276)

Sorry there are no passes over London.